User: anonymous
Location: CNYAC Observatory
(43.2150°N, 74.9500°W)
Time: 18:59:43
(UTC-04:00)
Language:

Cosmos 1300 Rocket - Orbit

View from above orbital plane
View from above orbital plane
View from above satellite
View from above satellite

Ground track
Ground track

The orbit data is extracted from the following two-line orbital elements,

1 12786U 81082B   14205.16284307  .00000115  00000-0  10850-4 0  9328
2 12786 082.4865 245.5522 0019004 146.8058 269.1344 14.84135227777704
Epoch (UTC): 24 July 2014 03:54:29
Eccentricity: 0.0019004
inclination: 82.4865°
perigee height: 603 km
apogee height: 629 km
right ascension of ascending node: 245.5522°
argument of perigee: 146.8058°
revolutions per day: 14.84135227
mean anomaly at epoch: 269.1344°
orbit number at epoch: 77770

The dashed part of the orbit path shows where the satellite is in the earth's shadow,  

DLR